N55VG KSAN-KPSP

Flight info

Callsign N55VG
Flight time N/A
Altitude 13000
Route BRDR7 JLI V208 TRM CLOWD1
Aircraft BE9L/L-VGDW/C

Departure

Time 2026-05-04 20:05
Airport San Diego International Airport (KSAN)

Arrival

Time N/A
Airport Palm Springs International Airport (KPSP)
Time Latitude Longitude Altitude Speed Heading
2026-05-04 19:57 32.73427 -117.18525 20 ft 0 kts 196°
2026-05-04 20:01 32.73379 -117.18538 20 ft 11 kts 168°
2026-05-04 20:01 32.73333 -117.18410 20 ft 21 kts 107°
2026-05-04 20:01 32.73284 -117.18211 20 ft 28 kts 103°
2026-05-04 20:01 32.73228 -117.17966 20 ft 32 kts 107°
2026-05-04 20:02 32.73161 -117.17697 20 ft 34 kts 111°
2026-05-04 20:02 32.73087 -117.17542 20 ft 0 kts 143°
2026-05-04 20:03 32.73073 -117.17532 20 ft 8 kts 154°
2026-05-04 20:03 32.73016 -117.17572 20 ft 16 kts 287°
2026-05-04 20:03 32.73023 -117.17602 20 ft 0 kts 285°
2026-05-04 20:04 32.73024 -117.17602 20 ft 2 kts 285°
2026-05-04 20:04 32.73105 -117.17942 20 ft 85 kts 285°
2026-05-04 20:04 32.73317 -117.18775 166 ft 115 kts 286°
2026-05-04 20:04 32.73558 -117.19724 494 ft 128 kts 287°
2026-05-04 20:05 32.73871 -117.20770 754 ft 140 kts 288°
2026-05-04 20:05 32.74211 -117.21921 980 ft 154 kts 288°
2026-05-04 20:05 32.74578 -117.23162 1240 ft 166 kts 287°
2026-05-04 20:05 32.74964 -117.24470 1491 ft 173 kts 288°
2026-05-04 20:06 32.75372 -117.25846 1745 ft 178 kts 287°
2026-05-04 20:06 32.75794 -117.27274 2000 ft 182 kts 287°
2026-05-04 20:06 32.76213 -117.28693 2249 ft 184 kts 287°
2026-05-04 20:06 32.76330 -117.30170 2484 ft 182 kts 252°
2026-05-04 20:07 32.75525 -117.31265 2721 ft 185 kts 208°
2026-05-04 20:07 32.74252 -117.31335 2959 ft 193 kts 164°
2026-05-04 20:07 32.73237 -117.30296 3208 ft 200 kts 130°
2026-05-04 20:07 32.72333 -117.29056 3457 ft 198 kts 136°
2026-05-04 20:08 32.71375 -117.27846 3711 ft 197 kts 138°
2026-05-04 20:08 32.70422 -117.26672 3962 ft 196 kts 138°
2026-05-04 20:08 32.69477 -117.25516 4210 ft 196 kts 139°
2026-05-04 20:08 32.68530 -117.24360 4461 ft 195 kts 139°
2026-05-04 20:09 32.67594 -117.23219 4709 ft 194 kts 139°
2026-05-04 20:09 32.66881 -117.21880 4943 ft 201 kts 105°
2026-05-04 20:09 32.67121 -117.20242 5186 ft 207 kts 61°
2026-05-04 20:09 32.68082 -117.18977 5436 ft 207 kts 53°
2026-05-04 20:10 32.69009 -117.17683 5688 ft 206 kts 51°
2026-05-04 20:10 32.69962 -117.16401 5940 ft 206 kts 50°
2026-05-04 20:10 32.70915 -117.15137 6190 ft 206 kts 50°
2026-05-04 20:10 32.71875 -117.13874 6441 ft 205 kts 50°
2026-05-04 20:11 32.72838 -117.12613 6694 ft 205 kts 50°
2026-05-04 20:11 32.73802 -117.11354 6947 ft 204 kts 50°
2026-05-04 20:11 32.74750 -117.10117 7197 ft 203 kts 50°
2026-05-04 20:11 32.75705 -117.08874 7449 ft 203 kts 50°
2026-05-04 20:12 32.76639 -117.07655 7698 ft 202 kts 51°
2026-05-04 20:12 32.77586 -117.06422 7950 ft 201 kts 51°
2026-05-04 20:12 32.78524 -117.05199 8203 ft 200 kts 51°
2026-05-04 20:12 32.79453 -117.03987 8453 ft 199 kts 51°
2026-05-04 20:13 32.80376 -117.02784 8704 ft 197 kts 51°
2026-05-04 20:13 32.81305 -117.01572 8938 ft 197 kts 52°
2026-05-04 20:13 32.82228 -117.00366 9141 ft 198 kts 51°
2026-05-04 20:13 32.83152 -116.99159 9344 ft 198 kts 51°
2026-05-04 20:14 32.84078 -116.97950 9546 ft 198 kts 52°
2026-05-04 20:14 32.85001 -116.96744 9748 ft 197 kts 51°
2026-05-04 20:14 32.85918 -116.95545 9949 ft 197 kts 52°
2026-05-04 20:14 32.86839 -116.94342 10151 ft 196 kts 51°
2026-05-04 20:15 32.87747 -116.93154 10351 ft 195 kts 51°
2026-05-04 20:15 32.88658 -116.91963 10553 ft 194 kts 51°
2026-05-04 20:15 32.89566 -116.90775 10755 ft 193 kts 51°
2026-05-04 20:15 32.90466 -116.89596 10957 ft 192 kts 51°
2026-05-04 20:16 32.91360 -116.88426 11158 ft 191 kts 51°
2026-05-04 20:16 32.92252 -116.87257 11359 ft 190 kts 51°
2026-05-04 20:16 32.93133 -116.86102 11559 ft 189 kts 51°
2026-05-04 20:16 32.94012 -116.84952 11759 ft 188 kts 51°
2026-05-04 20:17 32.94893 -116.83797 11961 ft 187 kts 51°
2026-05-04 20:17 32.95763 -116.82656 12161 ft 186 kts 51°
2026-05-04 20:17 32.96637 -116.81510 12363 ft 185 kts 52°
2026-05-04 20:17 32.97500 -116.80378 12564 ft 184 kts 52°
2026-05-04 20:18 32.98358 -116.79251 12764 ft 184 kts 52°
2026-05-04 20:18 32.99210 -116.78132 12934 ft 185 kts 52°
2026-05-04 20:18 33.00091 -116.76972 12970 ft 193 kts 52°
2026-05-04 20:18 33.01015 -116.75758 12975 ft 200 kts 51°
2026-05-04 20:19 33.01962 -116.74513 12975 ft 204 kts 51°
2026-05-04 20:19 33.02925 -116.73246 12974 ft 208 kts 51°
2026-05-04 20:19 33.03893 -116.71972 12974 ft 210 kts 51°
2026-05-04 20:19 33.04878 -116.70676 12974 ft 211 kts 51°
2026-05-04 20:20 33.05875 -116.69368 12973 ft 213 kts 50°
2026-05-04 20:20 33.07009 -116.68216 12973 ft 215 kts 42°
2026-05-04 20:20 33.08167 -116.67106 12973 ft 215 kts 41°
2026-05-04 20:20 33.09354 -116.65984 12966 ft 216 kts 41°
2026-05-04 20:21 33.10539 -116.64874 12963 ft 216 kts 40°
2026-05-04 20:21 33.11726 -116.63768 12962 ft 216 kts 40°
2026-05-04 20:21 33.14077 -116.61582 12961 ft 216 kts 40°
2026-05-04 20:22 33.15271 -116.60473 12959 ft 216 kts 40°
2026-05-04 20:22 33.16450 -116.59377 12957 ft 217 kts 40°
2026-05-04 20:22 33.17649 -116.58263 12954 ft 217 kts 40°
2026-05-04 20:22 33.18835 -116.57160 12950 ft 217 kts 40°
2026-05-04 20:23 33.20015 -116.56064 12945 ft 217 kts 40°
2026-05-04 20:23 33.21215 -116.54948 12939 ft 217 kts 40°
2026-05-04 20:23 33.22404 -116.53841 12933 ft 217 kts 40°
2026-05-04 20:23 33.23589 -116.52739 12926 ft 217 kts 40°
2026-05-04 20:24 33.24793 -116.51617 12917 ft 217 kts 40°
2026-05-04 20:24 33.25971 -116.50520 12909 ft 217 kts 40°
2026-05-04 20:24 33.27169 -116.49405 12899 ft 218 kts 40°
2026-05-04 20:24 33.28374 -116.48283 12888 ft 218 kts 40°
2026-05-04 20:25 33.29559 -116.47177 12880 ft 217 kts 40°
2026-05-04 20:25 33.30758 -116.46059 12780 ft 217 kts 40°
2026-05-04 20:25 33.31942 -116.44955 12677 ft 217 kts 40°
2026-05-04 20:25 33.33122 -116.43853 12578 ft 217 kts 40°
2026-05-04 20:26 33.34313 -116.42741 12474 ft 215 kts 40°
2026-05-04 20:26 33.35496 -116.41636 12212 ft 215 kts 40°
2026-05-04 20:26 33.36658 -116.40551 11949 ft 214 kts 40°
2026-05-04 20:26 33.37822 -116.39463 11638 ft 212 kts 40°
2026-05-04 20:27 33.38983 -116.38377 11199 ft 210 kts 40°
2026-05-04 20:27 33.40119 -116.37315 10770 ft 209 kts 40°
2026-05-04 20:27 33.41253 -116.36253 10312 ft 206 kts 40°
2026-05-04 20:27 33.42369 -116.35210 9853 ft 204 kts 40°
2026-05-04 20:28 33.43481 -116.34169 9399 ft 202 kts 40°
2026-05-04 20:28 33.44569 -116.33150 8951 ft 200 kts 40°
2026-05-04 20:28 33.45670 -116.32117 8499 ft 198 kts 40°
2026-05-04 20:28 33.46749 -116.31107 8057 ft 197 kts 40°
2026-05-04 20:29 33.47805 -116.30116 7622 ft 195 kts 40°
2026-05-04 20:29 33.48873 -116.29116 7184 ft 193 kts 39°
2026-05-04 20:29 33.49932 -116.28122 6750 ft 192 kts 39°
2026-05-04 20:29 33.50973 -116.27145 6443 ft 192 kts 39°
2026-05-04 20:30 33.52023 -116.26161 6223 ft 188 kts 39°
2026-05-04 20:30 33.53049 -116.25198 5832 ft 188 kts 39°
2026-05-04 20:30 33.54076 -116.24232 5396 ft 187 kts 39°
2026-05-04 20:30 33.55099 -116.23271 4972 ft 186 kts 39°
2026-05-04 20:31 33.56112 -116.22320 4569 ft 184 kts 39°
2026-05-04 20:31 33.57107 -116.21385 4462 ft 183 kts 38°
2026-05-04 20:31 33.58096 -116.20455 4445 ft 177 kts 38°
2026-05-04 20:31 33.59049 -116.19559 4442 ft 171 kts 38°
2026-05-04 20:32 33.59973 -116.18690 4442 ft 167 kts 38°
2026-05-04 20:32 33.60869 -116.17847 4443 ft 164 kts 38°
2026-05-04 20:32 33.61768 -116.17021 4439 ft 162 kts 32°
2026-05-04 20:32 33.62861 -116.16851 4441 ft 162 kts 346°
2026-05-04 20:33 33.63737 -116.17663 4443 ft 165 kts 302°
2026-05-04 20:33 33.64240 -116.18907 4446 ft 165 kts 299°
2026-05-04 20:33 33.64774 -116.20121 4445 ft 164 kts 301°
2026-05-04 20:33 33.65323 -116.21314 4445 ft 164 kts 301°
2026-05-04 20:34 33.65882 -116.22508 4445 ft 164 kts 302°
2026-05-04 20:34 33.66440 -116.23695 4446 ft 164 kts 302°
2026-05-04 20:34 33.67004 -116.24892 4447 ft 163 kts 302°
2026-05-04 20:34 33.67559 -116.26068 4449 ft 166 kts 302°
2026-05-04 20:35 33.68148 -116.27314 4452 ft 175 kts 302°
2026-05-04 20:35 33.68755 -116.28603 4452 ft 182 kts 302°
2026-05-04 20:35 33.69392 -116.29954 4452 ft 186 kts 302°
2026-05-04 20:35 33.70035 -116.31316 4452 ft 189 kts 302°
2026-05-04 20:36 33.70748 -116.32632 4429 ft 188 kts 292°
2026-05-04 20:36 33.70875 -116.34152 4295 ft 180 kts 285°
2026-05-04 20:36 33.71168 -116.35602 4049 ft 179 kts 287°
2026-05-04 20:36 33.71709 -116.36925 3731 ft 179 kts 310°
2026-05-04 20:37 33.72522 -116.38079 3306 ft 185 kts 316°
2026-05-04 20:37 33.73404 -116.39210 3012 ft 181 kts 316°
2026-05-04 20:37 33.74231 -116.40259 2935 ft 163 kts 316°
2026-05-04 20:37 33.74973 -116.41199 2704 ft 148 kts 317°
2026-05-04 20:38 33.75644 -116.42044 2513 ft 133 kts 317°
2026-05-04 20:38 33.76256 -116.42818 2322 ft 124 kts 317°
2026-05-04 20:38 33.76808 -116.43572 2146 ft 118 kts 308°
2026-05-04 20:38 33.77149 -116.44466 1949 ft 117 kts 294°
2026-05-04 20:39 33.77417 -116.45366 1787 ft 113 kts 296°
2026-05-04 20:39 33.77818 -116.46175 1532 ft 112 kts 316°
2026-05-04 20:39 33.78405 -116.46743 1376 ft 106 kts 327°
2026-05-04 20:39 33.79002 -116.47237 1222 ft 102 kts 326°
2026-05-04 20:40 33.79602 -116.47759 1103 ft 112 kts 326°
2026-05-04 20:40 33.80225 -116.48320 1014 ft 117 kts 324°
2026-05-04 20:40 33.80890 -116.48917 853 ft 119 kts 326°
2026-05-04 20:40 33.81525 -116.49458 701 ft 104 kts 323°
2026-05-04 20:41 33.82066 -116.49956 515 ft 88 kts 324°
2026-05-04 20:41 33.82402 -116.50254 480 ft 63 kts 326°